Location: Peebles
(55.6412°N, 3.1714°W)
Time: 15:15:09
(UTC+01:00)

SPOT 5 - Pass Details

Date: 26 September 2021
Orbit: 622 x 815 km, 98.2° (Epoch: 18 October)

Event Time Altitude Azimuth Distance (km) Brightness Sun altitude
Exits shadow 21:32:02 35° 76° (ENE) 1,293 3.8 -21.3°
Maximum altitude 21:32:40 36° 61° (ENE) 1,262 3.8 -21.3°
Drops below altitude 10° 21:37:24 10° 356° (N) 2,358 6.0 -21.9°
Sets 21:39:51 0° 348° (NNW) 3,266 6.9 -22.2°
